User: anonymous   Login
Location: Unspecified
(0.0000°N, 0.0000°E)
Time: 16:36:10
(UTC+00:00)
Language:

STARS - Orbit

View from above orbital plane
View from above orbital plane
View from above satellite
View from above satellite

Ground track
Ground track

The orbit data is extracted from the following two-line orbital elements,

1 33498U 09002G   18110.15166647  .00000211  00000-0  36336-4 0  9994
2 33498  98.3324 299.7790 0012382  88.4984  30.1404 14.78783400497260
Epoch (UTC): 20 April 2018 03:38:23
Eccentricity: 0.0012382
inclination: 98.3324°
perigee height: 624 km
apogee height: 642 km
right ascension of ascending node: 299.7790°
argument of perigee: 88.4984°
revolutions per day: 14.78783400
mean anomaly at epoch: 30.1404°
orbit number at epoch: 49726

The dashed part of the orbit path shows where the satellite is in the earth's shadow,  

DLR